Date,TemperatureHighF,TemperatureAvgF,TemperatureLowF,DewpointHighF,DewpointAvgF,DewpointLowF,HumidityHigh,HumidityAvg,HumidityLow,PressureMaxIn,PressureMinIn,WindSpeedMaxMPH,WindSpeedAvgMPH,GustSpeedMaxMPH,PrecipitationSumIn
2013-1-1,39.6,30.8,17.6,15.6,1.8,-12.0,47,30,14,29.85,29.64,23,6,23,0.00
2013-1-2,34.9,19.8,5.2,3.7,-8.3,-19.8,66,33,10,30.02,29.80,17,4,17,0.00
2013-1-3,36.0,15.4,-0.9,-0.4,-13.9,-32.1,54,30,10,30.06,29.88,10,1,10,0.00
2013-1-4,41.9,29.2,16.9,10.4,3.3,-4.8,61,35,14,29.88,29.72,15,4,15,0.00
2013-1-5,46.6,32.5,19.4,9.8,0.5,-15.0,61,29,10,30.15,29.78,21,4,21,0.00
2013-1-6,50.2,32.4,20.5,21.6,11.2,-6.7,74,47,10,30.10,29.80,13,2,13,0.02
2013-1-7,47.3,30.8,16.2,23.4,7.0,-14.6,73,45,10,30.27,29.87,14,2,14,0.00
2013-1-8,50.9,33.8,15.3,17.8,7.1,-6.5,71,38,10,30.25,30.15,18,4,18,0.00
2013-1-9,42.6,32.7,18.7,25.0,18.9,11.8,76,58,36,30.26,29.92,14,2,14,0.00
2013-1-10,50.4,39.3,25.2,17.0,3.5,-8.7,66,26,10,30.42,29.98,21,6,21,0.00
2013-1-11,36.5,29.7,21.2,31.2,19.2,13.2,90,66,40,30.41,30.05,5,1,5,0.20
2013-1-12,43.7,39.1,33.6,41.2,37.0,31.0,98,92,86,30.07,29.98,4,0,4,0.06
2013-1-13,51.3,45.2,17.2,48.5,43.3,7.5,99,93,65,30.16,29.78,11,2,11,0.33
2013-1-14,58.5,47.6,37.2,53.3,35.8,18.0,99,69,26,30.09,29.63,21,5,21,0.00
2013-1-15,41.0,35.1,28.9,26.4,17.8,11.9,75,50,31,30.13,30.01,8,1,8,0.00
2013-1-16,34.0,32.1,30.0,31.8,27.6,19.2,97,84,57,30.03,29.60,5,1,5,0.00
2013-1-17,46.2,33.1,25.9,35.3,20.6,-0.2,99,65,29,29.91,29.64,14,2,14,0.18
2013-1-18,29.5,23.0,16.0,3.0,-12.8,-27.9,47,22,10,30.24,29.83,18,5,18,0.00
2013-1-19,46.9,37.3,23.4,24.2,11.5,-4.9,50,35,22,30.16,29.66,24,9,24,0.00
2013-1-20,53.2,40.5,27.1,22.7,9.9,-12.2,52,31,10,29.78,29.39,28,8,28,0.00
2013-1-21,27.5,23.1,17.1,16.6,3.6,-14.3,81,47,16,29.90,29.57,17,3,18,0.00
2013-1-22,25.3,22.0,16.5,16.7,-13.9,-28.9,83,28,10,29.74,29.55,19,10,19,0.00
2013-1-23,24.6,24.6,24.6,-24.1,-24.1,-24.1,10,10,10,29.70,29.70,16,16,16,0.00
2013-1-24,24.6,18.2,3.9,7.5,-26.1,-34.4,65,13,10,30.11,29.70,21,11,21,0.45
2013-1-25,26.6,16.2,7.2,5.7,-24.3,-35.6,61,17,10,30.12,29.80,15,4,15,0.00
2013-1-26,30.7,16.4,4.8,4.1,-11.7,-28.6,66,35,10,30.05,29.76,19,3,19,0.00
2013-1-27,37.6,19.7,5.4,-0.8,-16.3,-29.4,56,23,10,30.24,30.04,14,3,14,0.00
2013-1-28,30.9,24.4,12.7,25.2,7.0,-24.1,87,53,10,30.23,29.74,14,2,14,0.00
2013-1-29,37.9,31.2,26.8,31.7,25.2,20.9,94,79,53,29.93,29.74,4,1,4,0.15
2013-1-30,58.5,46.8,32.9,57.5,46.1,31.6,99,97,91,29.88,29.15,28,7,28,0.04
2013-1-31,61.5,47.3,30.4,60.9,26.0,-11.1,99,54,10,29.39,28.74,40,14,40,0.70
2013-2-1,33.6,26.6,20.1,15.6,-4.0,-20.1,67,28,10,29.88,29.39,20,8,20,0.00
2013-2-2,32.9,24.0,15.3,13.0,-5.5,-20.7,67,29,10,30.01,29.80,20,7,20,0.00
2013-2-3,37.0,23.9,15.3,18.1,8.8,-1.0,77,55,22,29.81,29.50,7,1,7,0.01
2013-2-4,33.8,23.2,15.4,11.5,-5.4,-23.1,76,35,10,29.71,29.50,24,5,24,0.00
2013-2-5,32.0,24.8,17.1,17.3,4.1,-3.2,71,43,24,30.29,29.69,6,1,6,1.35
2013-2-6,43.0,29.6,22.1,27.5,1.8,-25.1,82,41,10,30.27,29.83,19,4,19,0.02
2013-2-7,41.0,25.1,12.9,4.4,-10.5,-21.6,59,24,10,30.46,30.26,10,2,10,0.00
2013-2-8,32.9,27.5,19.0,23.2,13.4,-23.5,82,59,10,30.36,29.57,24,4,24,0.00
2013-2-9,30.0,20.9,12.4,18.1,-0.5,-30.7,80,51,10,30.20,29.60,22,7,22,0.00
2013-2-10,54.3,20.2,-6.7,0.5,-13.4,-27.2,61,27,10,30.39,30.19,8,2,8,0.02
2013-2-11,44.2,33.8,15.8,42.5,24.5,-8.9,99,72,22,30.27,29.57,15,2,15,0.24
2013-2-12,48.9,32.6,0.0,37.9,21.5,5.8,99,49,18,29.85,29.59,17,4,17,0.01
2013-2-13,57.2,38.4,17.2,17.2,8.0,-14.0,65,32,10,30.42,29.75,79,3,79,1.64
2013-2-14,55.8,36.0,17.2,35.4,11.9,-7.7,89,47,10,30.37,29.77,11,2,11,0.01
2013-2-15,53.4,40.6,31.5,28.2,20.8,8.8,79,50,17,30.00,29.91,16,5,16,0.00
2013-2-16,50.0,35.2,28.4,29.5,14.1,-10.1,85,49,10,29.98,29.73,13,2,13,0.09
2013-2-17,28.8,22.6,14.5,4.9,-18.0,-26.6,36,16,10,29.84,29.53,28,10,28,0.00
2013-2-18,34.5,21.0,12.2,-4.6,-19.1,-28.6,37,17,10,30.20,29.84,36,7,36,0.00
2013-2-19,47.7,36.0,16.9,39.1,15.5,-10.2,95,49,18,30.20,29.61,20,4,20,0.18
2013-2-20,38.1,30.7,24.6,36.8,-0.3,-19.3,97,31,10,29.87,29.60,21,6,21,0.00
2013-2-21,32.5,25.8,19.9,3.6,-3.9,-16.6,46,28,12,30.29,29.85,20,7,20,0.00
2013-2-22,50.0,30.9,13.1,16.2,4.7,-10.1,71,39,10,30.41,30.27,11,2,11,0.00
2013-2-23,38.3,34.8,33.1,30.0,22.8,13.1,87,63,43,30.32,29.87,8,2,8,0.08
2013-2-24,39.2,34.9,31.6,34.4,31.4,28.5,94,87,75,29.93,29.73,13,3,13,0.09
2013-2-25,53.4,36.0,24.4,36.7,22.6,10.4,96,63,19,30.25,29.93,5,1,5,0.08
2013-2-26,44.4,36.7,17.1,29.0,20.2,7.0,80,54,22,30.33,29.71,9,2,9,2.19
2013-2-27,43.9,39.1,34.3,39.8,34.3,21.5,91,83,56,29.71,29.18,25,3,25,0.77
2013-2-28,54.7,38.4,32.0,39.4,30.8,25.4,97,76,33,29.25,29.16,5,1,5,0.01
2013-3-1,49.3,38.2,31.3,40.7,22.2,10.9,98,58,22,29.34,29.17,13,3,13,0.00
2013-3-2,41.0,35.8,31.5,22.1,16.2,11.9,66,45,31,29.34,29.26,12,4,12,0.00
2013-3-3,38.7,31.7,28.4,23.2,15.5,10.3,76,51,33,29.30,29.23,11,5,11,0.00
2013-3-4,41.4,31.2,23.9,12.7,8.3,-2.2,57,39,18,29.44,29.30,19,7,19,0.00
2013-3-5,56.7,37.5,24.1,20.1,8.9,-4.1,62,35,10,29.68,29.44,11,2,11,0.00
2013-3-6,50.4,37.2,29.7,30.9,23.8,12.8,73,60,25,29.67,29.59,20,3,20,0.01
2013-3-7,37.8,33.6,31.5,30.8,25.5,19.8,94,73,49,29.67,29.59,15,4,15,0.12
2013-3-8,32.2,31.6,30.7,30.9,30.3,29.5,95,95,94,29.62,29.57,0,0,0,0.00
2013-3-9,70.2,40.7,17.1,15.8,3.3,-14.5,65,27,10,30.08,29.86,8,2,8,3.39
2013-3-10,58.1,38.8,19.8,27.8,13.6,-9.2,83,45,10,30.08,29.95,9,3,10,0.00
2013-3-11,53.8,43.3,35.8,39.3,29.7,22.9,77,60,31,30.00,29.78,14,6,14,0.00
2013-3-12,56.1,51.1,42.8,53.4,44.6,31.7,99,79,61,29.79,29.36,22,8,22,0.58
2013-3-13,53.1,41.5,31.1,31.7,12.7,-7.3,74,38,10,29.50,29.42,21,4,21,0.00
2013-3-14,37.4,30.8,26.2,15.9,-0.9,-20.3,49,27,10,29.55,29.46,29,8,29,0.00
2013-3-15,45.0,31.0,24.3,24.0,-5.4,-21.6,69,25,10,29.58,29.36,22,7,22,0.00
2013-3-16,43.9,33.8,24.8,19.8,-3.9,-16.4,56,22,10,29.57,29.41,14,3,14,0.00
2013-3-17,41.7,31.7,23.7,4.1,-9.9,-21.3,37,18,10,29.98,26.72,19,5,19,0.00
2013-3-18,42.4,29.8,16.3,21.5,-8.4,-23.5,74,23,10,30.13,29.83,13,3,13,0.00
2013-3-19,40.5,33.1,28.6,30.7,25.8,21.4,92,75,54,29.83,29.30,13,2,13,0.33
2013-3-20,44.2,31.9,21.7,28.5,5.2,-14.1,92,39,10,29.49,29.40,20,3,20,0.02
2013-3-21,48.7,32.1,21.2,19.4,2.8,-13.9,75,37,10,29.50,29.28,9,2,9,0.00
2013-3-22,29.7,23.5,19.0,3.5,1.6,-11.0,43,38,16,29.38,29.33,6,1,7,0.00
2013-3-23,35.2,23.9,17.1,7.7,3.5,0.1,65,41,23,30.44,29.38,11,2,11,0.00
2013-3-24,54.5,38.8,25.7,14.7,3.4,-9.1,57,26,10,29.95,29.79,17,4,17,0.00
2013-3-25,52.0,38.4,28.8,17.0,10.7,-6.1,59,35,10,29.84,29.55,17,2,17,0.00
2013-3-26,53.1,40.4,27.7,24.9,8.8,-11.5,65,33,10,29.90,29.63,11,3,11,0.00
2013-3-27,56.1,39.3,21.9,23.1,7.5,-5.8,79,35,10,29.98,29.86,26,4,26,0.00
2013-3-28,56.3,42.6,31.3,30.9,17.1,-3.6,73,40,10,30.13,29.96,12,2,12,0.01
2013-3-29,61.2,45.1,28.9,31.3,13.1,-3.7,84,35,10,30.16,30.07,19,3,19,0.00
2013-3-30,62.6,45.7,28.9,27.1,8.9,-12.6,77,29,10,30.19,30.10,17,3,17,0.00
2013-3-31,59.0,42.2,17.1,35.4,14.6,-3.2,77,41,10,30.22,29.51,25,5,25,4.37
2013-4-1,63.3,45.2,32.9,46.7,26.9,-7.1,99,57,14,29.70,29.39,24,6,24,0.17
2013-4-2,43.9,34.2,25.3,7.6,-6.2,-17.1,38,19,10,29.85,29.70,26,8,26,0.00
2013-4-3,48.4,36.5,29.8,3.3,-7.6,-17.1,31,16,10,30.09,29.84,23,10,23,0.00
2013-4-4,58.3,40.6,24.8,20.7,1.2,-11.1,49,22,10,30.20,29.91,21,6,21,0.00
2013-4-5,65.5,46.9,37.4,23.6,9.7,-9.0,56,27,10,29.91,29.53,22,6,22,0.00
2013-4-6,55.6,40.2,28.9,12.9,-4.9,-19.2,39,16,10,30.17,29.78,21,5,21,0.00
2013-4-7,58.1,43.6,26.8,37.3,12.5,-4.7,68,34,10,30.16,29.85,29,8,29,0.00
2013-4-8,76.3,55.1,37.9,43.5,24.7,5.4,93,42,10,29.93,29.81,14,3,14,0.00
2013-4-9,74.8,60.6,48.2,45.2,28.2,8.8,79,36,10,29.88,29.72,18,5,18,0.00
2013-4-10,72.3,57.4,47.7,50.7,42.1,28.7,96,61,23,29.84,29.65,12,2,12,0.22
2013-4-11,63.9,51.3,39.2,49.4,30.4,-0.7,96,52,12,29.97,29.67,12,3,12,0.00
2013-4-12,41.5,39.3,37.4,35.1,31.9,17.8,89,76,38,29.98,29.63,13,2,13,0.50
2013-4-13,50.7,39.0,35.6,35.1,32.8,26.2,91,80,40,29.73,29.58,11,3,11,0.07
2013-4-14,54.9,44.0,31.8,39.5,18.0,-5.9,89,44,11,30.29,29.98,19,4,19,0.00
2013-4-15,65.8,46.2,28.6,29.0,14.0,-1.1,81,38,10,30.44,30.28,14,3,14,0.00
2013-4-16,67.5,52.0,32.9,46.1,32.3,15.8,79,50,17,30.45,30.15,27,8,27,0.00
2013-4-17,74.5,58.8,45.3,50.4,21.2,-2.9,89,31,10,30.38,30.15,14,4,16,0.02
2013-4-18,64.0,51.8,34.3,42.1,19.6,1.0,78,37,10,30.45,30.18,23,6,23,0.00
2013-4-19,74.7,62.8,53.2,63.3,56.7,42.1,99,82,47,30.19,29.70,30,11,30,0.07
2013-4-20,63.0,52.1,17.2,62.7,27.2,-0.1,99,51,10,30.40,29.68,20,6,20,0.38
2013-4-21,64.8,44.9,31.5,22.0,5.9,-8.6,47,23,10,30.68,30.31,17,4,17,0.00
2013-4-22,67.3,47.0,29.1,32.8,14.7,-2.9,86,38,10,30.75,30.58,16,3,16,0.00
2013-4-23,46.6,41.1,34.5,35.4,29.3,21.0,77,63,52,30.59,30.13,11,3,11,0.00
2013-4-24,75.2,55.6,41.5,45.0,32.7,13.0,82,51,10,30.14,29.84,19,6,19,0.00
2013-4-25,67.1,53.7,38.1,51.0,20.6,-5.4,95,37,10,30.29,29.88,16,6,16,0.07
2013-4-26,73.4,52.0,30.7,31.1,15.8,-0.8,79,33,10,30.44,30.30,12,3,12,0.00
2013-4-27,80.6,54.5,32.9,41.0,21.6,5.6,89,39,10,30.45,30.29,14,3,14,0.00
2013-4-28,74.7,56.6,36.9,40.2,17.5,-2.6,84,31,10,30.37,30.23,18,4,18,0.00
2013-4-29,68.9,56.6,46.8,39.6,18.4,-0.8,66,29,10,30.29,30.23,14,4,14,0.00
2013-4-30,77.0,59.9,45.9,34.0,16.0,-4.9,57,23,10,30.38,30.27,13,3,13,0.00
2013-5-1,86.5,58.2,33.4,32.5,20.4,6.1,77,31,10,30.51,30.37,15,2,15,0.00
2013-5-2,88.2,61.0,38.1,45.8,24.5,-1.5,90,36,10,30.50,30.30,18,3,18,0.00
2013-5-3,81.0,60.4,42.6,36.8,21.8,8.6,65,28,10,30.54,30.37,11,2,11,0.00
2013-5-4,84.4,59.6,37.9,48.6,23.4,-4.9,93,38,10,30.41,30.25,11,2,11,0.00
2013-5-5,82.2,55.0,32.0,36.8,22.5,7.7,81,38,10,30.35,30.21,10,2,10,0.00
2013-5-6,83.3,60.7,37.9,41.8,26.9,13.4,86,40,10,30.32,29.77,9,3,9,0.00
2013-5-7,84.9,63.6,41.0,54.3,37.9,-18.3,98,50,10,29.97,29.80,17,3,17,0.00
2013-5-8,76.5,63.9,53.6,63.4,55.7,47.8,97,78,39,29.91,29.77,18,2,18,0.45
2013-5-9,81.9,61.3,52.7,61.6,55.8,19.6,99,84,10,30.23,29.62,8,1,8,0.85
2013-5-10,85.1,67.9,54.3,63.1,48.7,30.0,99,60,15,29.99,29.90,12,3,12,0.01
2013-5-11,68.9,63.1,59.2,63.1,58.2,48.2,99,85,57,29.92,29.69,20,5,20,0.25
2013-5-12,74.1,62.0,48.6,60.9,39.9,3.4,99,55,11,29.86,29.60,17,3,17,0.04
2013-5-13,83.1,49.8,37.8,29.3,14.9,-0.4,67,30,10,30.17,29.86,13,3,13,0.96
2013-5-14,66.2,48.5,34.3,38.2,16.6,-1.8,85,39,10,30.02,26.90,9,2,9,0.00
2013-5-15,81.9,52.3,29.7,50.1,35.7,7.1,90,59,10,30.10,29.57,17,4,17,1.06
2013-5-16,88.3,67.2,43.2,58.2,30.2,10.0,99,42,10,29.69,29.54,16,3,16,0.00
2013-5-17,81.5,62.7,45.3,41.7,23.9,3.6,75,29,10,30.10,29.69,14,2,14,0.00
2013-5-18,75.9,58.5,39.2,49.4,31.9,12.2,91,47,10,30.20,30.10,17,3,17,0.00
2013-5-19,81.9,55.9,44.8,55.9,48.6,19.6,99,79,10,30.23,29.81,11,2,11,0.11
2013-5-20,90.9,69.9,56.1,64.9,58.5,49.9,99,73,28,29.81,29.54,9,2,9,0.01
2013-5-21,94.8,72.0,58.1,69.8,62.1,19.6,99,77,10,30.32,29.42,16,2,16,0.26
2013-5-22,79.3,65.7,54.7,67.7,60.4,51.9,99,84,59,30.09,29.91,11,3,11,0.17
2013-5-23,73.9,68.4,64.9,68.8,66.8,64.7,99,95,80,29.99,29.86,14,5,14,0.90
2013-5-24,82.2,60.6,45.9,68.6,56.1,19.6,99,87,10,30.28,29.52,14,3,14,1.00
2013-5-25,50.5,46.0,42.1,48.0,43.9,38.7,99,92,82,29.92,29.85,13,4,13,0.61
2013-5-26,63.0,50.2,41.0,39.7,35.6,29.8,90,60,31,30.20,29.86,21,4,21,0.02
2013-5-27,82.2,59.3,40.3,43.8,26.7,7.0,91,44,10,30.25,29.93,13,2,13,4.11
2013-5-28,77.5,59.2,40.3,54.5,37.7,13.2,93,56,10,30.03,29.95,11,2,11,0.00
2013-5-29,88.0,67.6,57.6,64.3,60.0,54.5,99,80,38,29.97,29.76,14,2,14,0.67
2013-5-30,97.2,77.7,61.7,71.4,62.7,47.2,99,68,19,29.90,29.81,12,2,12,0.18
2013-5-31,97.0,80.0,63.3,74.1,60.0,30.8,99,60,10,29.91,29.75,14,2,14,0.00
2013-6-1,92.8,79.6,66.7,64.0,61.1,54.9,81,56,29,29.79,29.67,15,4,15,0.00
2013-6-2,88.3,76.5,69.4,67.2,64.1,58.4,88,68,40,29.69,29.54,18,5,18,0.07
2013-6-3,86.0,71.0,59.7,68.1,59.9,27.4,99,73,30,29.68,29.57,10,2,10,0.65
2013-6-4,80.4,63.6,50.5,46.6,32.2,15.8,78,35,10,29.91,29.68,13,3,13,0.02
2013-6-5,83.7,63.3,45.9,54.8,39.7,18.1,99,52,10,30.01,29.88,11,2,11,0.00
2013-6-6,75.6,62.2,48.6,55.1,46.7,38.8,91,60,29,29.98,29.88,11,2,11,0.07
2013-6-7,81.5,57.4,55.4,57.8,55.7,1.6,99,96,10,30.40,29.55,4,2,4,0.29
2013-6-8,81.5,65.5,52.5,60.0,54.4,49.8,99,72,34,30.20,29.80,14,3,14,0.46
2013-6-9,87.3,69.2,7.9,63.2,49.2,-37.2,99,59,10,30.34,30.20,12,2,12,0.00
2013-6-10,73.6,63.2,53.1,63.5,58.6,6.3,99,86,10,30.36,30.10,7,1,7,0.30
2013-6-11,78.6,63.7,44.8,66.8,60.1,-8.4,99,90,10,30.10,29.72,8,2,8,0.72
2013-6-12,78.4,64.6,53.2,60.2,49.9,37.5,99,64,23,30.02,29.77,20,4,20,0.01
2013-6-13,62.6,55.2,48.9,59.5,54.2,48.4,99,97,83,30.00,29.80,5,0,5,0.78
2013-6-14,84.7,62.6,50.7,60.5,49.4,28.8,99,71,14,30.00,29.78,8,2,8,0.64
2013-6-15,87.3,67.4,48.7,66.1,40.9,18.9,99,54,10,30.14,30.00,11,2,11,0.00
2013-6-16,82.6,65.9,48.7,64.2,51.8,19.6,99,66,10,30.42,29.90,13,2,13,10.04
2013-6-17,89.2,70.5,56.7,69.2,56.9,36.2,99,70,18,30.11,29.98,18,3,18,0.31
2013-6-18,85.8,66.8,57.6,68.8,61.2,53.3,99,85,34,30.12,30.03,11,1,11,0.41
2013-6-19,73.4,57.9,52.7,59.6,54.6,48.6,99,90,46,30.22,30.10,7,1,7,0.05
2013-6-20,85.8,74.2,57.4,55.4,39.5,19.6,93,34,10,30.47,29.91,11,4,11,0.00
2013-6-21,89.6,72.8,58.8,57.8,52.3,44.6,78,51,23,29.99,29.90,13,3,13,0.00
2013-6-22,88.7,74.2,63.5,55.8,48.1,23.6,61,43,11,29.95,29.83,13,4,13,0.00
2013-6-23,93.6,77.9,63.9,67.6,58.4,47.7,83,53,23,29.89,29.73,17,5,17,0.00
2013-6-24,96.6,79.4,66.9,73.6,66.7,50.7,99,72,24,29.76,29.61,11,3,11,0.07
2013-6-25,93.9,77.6,64.8,74.7,64.6,53.1,99,71,26,29.68,29.46,24,2,24,0.02
2013-6-26,88.2,77.2,69.1,77.8,67.5,59.3,99,76,40,29.54,29.45,10,2,10,0.00
2013-6-27,89.8,74.2,65.3,77.7,68.6,62.7,99,85,44,29.54,29.37,8,1,8,0.12
2013-6-28,86.4,75.4,67.6,76.7,70.0,64.7,99,85,52,29.38,29.18,16,4,16,0.80
2013-6-29,87.1,76.0,68.2,73.2,67.2,60.3,99,77,42,29.42,29.19,14,4,14,0.00
2013-6-30,88.5,77.7,70.3,72.4,69.1,64.5,99,77,47,29.63,29.42,13,4,13,0.01
2013-7-1,81.9,75.2,71.8,78.7,73.4,19.6,99,95,10,30.21,29.63,10,2,10,0.39
2013-7-2,88.2,77.8,72.7,75.2,71.7,65.6,99,83,49,30.15,30.03,13,4,13,0.01
2013-7-3,91.0,79.1,72.5,73.5,70.5,61.1,99,78,38,30.19,30.12,14,5,14,0.00
2013-7-4,93.9,82.5,72.1,78.4,70.4,61.5,99,71,36,30.19,30.08,14,4,14,0.00
2013-7-5,96.1,84.1,73.0,74.0,68.4,56.7,98,64,29,30.15,30.02,13,4,13,0.00
2013-7-6,98.8,84.0,73.6,74.5,68.9,57.4,97,65,29,30.07,29.96,8,2,8,0.00
2013-7-7,98.8,81.1,70.2,80.2,71.7,64.1,99,77,33,30.01,29.87,11,1,11,0.02
2013-7-8,96.1,80.5,70.2,74.8,67.5,54.3,99,71,25,30.02,29.88,10,2,10,0.27
2013-7-9,95.9,76.9,67.8,75.5,69.5,56.3,99,81,31,30.06,29.97,11,1,11,0.01
2013-7-10,88.3,76.7,70.9,76.8,73.2,68.9,99,90,54,30.00,29.76,14,2,14,0.65
2013-7-11,87.6,76.5,71.6,78.8,72.2,65.4,99,88,48,29.93,29.75,5,1,5,0.01
2013-7-12,91.4,78.7,68.7,62.3,57.5,49.4,64,50,27,30.25,30.15,6,2,8,0.00
2013-7-13,91.4,74.5,67.5,74.6,66.4,49.5,99,77,47,30.37,30.24,4,1,4,0.08
2013-7-14,97.5,82.7,73.4,80.2,69.2,55.4,99,70,25,30.39,30.27,7,2,10,0.08
2013-7-15,101.3,83.1,69.6,79.8,67.1,52.6,99,66,21,30.29,30.18,6,1,6,0.00
2013-7-16,102.0,83.4,67.1,77.5,64.4,42.5,99,63,14,30.26,30.18,11,1,11,0.00
2013-7-17,99.0,83.4,68.2,78.9,67.4,50.8,99,65,20,30.27,30.10,7,2,9,0.00
2013-7-18,100.4,86.1,72.3,75.4,67.9,53.5,94,61,21,30.11,30.01,8,2,9,0.00
2013-7-19,97.7,86.5,74.8,78.1,70.8,58.5,99,65,28,30.01,29.81,12,4,15,0.00
2013-7-20,95.0,82.6,67.8,76.6,69.6,60.0,95,68,33,29.91,29.75,9,3,10,0.00
2013-7-21,97.3,78.4,65.3,71.2,60.1,34.1,99,63,11,30.05,29.92,4,1,9,0.00
2013-7-22,92.3,77.3,63.7,74.1,65.2,50.7,99,72,25,30.07,29.91,8,1,10,0.04
2013-7-23,90.7,76.6,72.1,78.6,72.1,64.8,99,88,47,29.90,29.61,14,2,14,0.45
2013-7-24,88.2,76.7,64.9,76.9,61.0,43.8,99,64,23,30.02,29.66,11,2,11,0.00
2013-7-25,67.5,62.0,57.9,59.8,50.9,41.9,99,68,52,30.17,30.02,9,2,9,0.08
2013-7-26,86.9,65.8,59.7,66.3,60.9,53.8,99,87,35,30.14,30.06,8,1,8,0.22
2013-7-27,73.8,62.7,58.8,70.6,62.3,58.4,99,99,81,30.14,30.10,5,0,5,0.00
2013-7-29,91.6,78.2,-16.8,73.7,57.6,-56.7,99,56,10,30.00,29.89,29,2,29,0.31
2013-7-30,113.7,70.6,-7.4,64.9,50.7,-24.7,99,60,11,30.07,29.99,10,2,10,0.00
2013-7-31,88.9,71.6,55.2,70.1,52.5,24.5,99,62,10,30.08,29.97,7,1,7,0.00
2013-8-1,82.2,67.9,59.4,68.3,62.9,51.3,99,86,39,30.05,29.82,13,2,13,0.65
2013-8-2,88.7,74.2,63.9,74.1,58.2,39.7,99,66,20,29.86,29.77,12,2,12,0.19
2013-8-3,84.9,69.4,60.1,65.2,59.2,46.3,99,75,28,29.86,29.76,11,2,11,0.09
2013-8-4,84.9,67.0,54.3,67.4,52.7,38.0,99,69,20,29.91,29.78,12,2,12,0.02
2013-8-5,86.9,65.9,49.8,61.8,40.1,-3.3,99,56,10,30.03,29.91,13,2,13,0.01
2013-8-6,89.1,66.3,46.9,59.1,45.2,24.7,99,59,10,30.12,30.03,9,2,9,0.00
2013-8-7,83.5,65.4,0.0,60.9,53.3,36.9,98,62,20,30.17,30.07,13,2,13,0.00
2013-8-8,85.1,74.3,68.2,72.7,67.6,60.9,99,81,52,30.08,29.98,14,4,14,0.05
2013-8-9,80.1,74.0,0.0,78.7,73.1,69.9,99,96,87,30.00,29.74,17,4,17,2.09
2013-8-10,88.2,73.6,56.3,71.3,54.5,33.6,99,60,17,30.02,29.79,14,2,14,0.00
2013-8-11,86.0,66.9,50.0,59.8,48.4,28.5,99,62,14,30.10,29.99,9,1,9,0.00
2013-8-12,89.2,72.1,59.5,67.9,55.4,36.7,99,65,17,30.02,29.89,8,1,8,0.00
2013-8-13,80.1,70.2,63.0,72.0,65.0,58.0,99,85,49,29.91,29.66,8,1,8,0.14
2013-8-14,79.2,65.1,52.7,64.5,49.1,33.0,99,64,20,29.98,29.68,14,3,14,0.01
2013-8-15,84.2,63.9,48.6,60.3,45.4,19.1,99,63,10,30.11,29.98,9,2,14,0.00
2013-8-16,85.5,66.1,49.1,64.9,47.5,26.8,99,62,13,30.18,30.11,10,1,10,0.01
2013-8-17,92.7,69.1,51.3,62.9,49.3,22.8,99,62,10,30.27,30.18,7,1,7,0.00
2013-8-18,83.3,67.5,56.1,64.9,59.1,50.5,99,78,35,30.26,30.08,6,1,6,0.00
2013-8-19,85.3,70.3,58.3,63.3,57.2,45.3,99,69,26,30.09,29.97,8,1,8,0.00
2013-8-20,93.2,73.5,57.6,69.2,55.3,32.7,99,64,14,30.10,29.99,8,1,8,0.00
2013-8-21,92.7,73.8,57.0,70.4,57.1,39.8,99,66,18,30.15,30.00,11,2,11,0.00
2013-8-22,84.4,73.9,62.2,71.7,66.5,62.0,99,79,52,30.03,29.83,11,3,11,0.00
2013-8-23,92.8,72.8,57.2,71.7,55.5,25.5,99,65,10,30.11,29.82,10,1,10,0.00
2013-8-24,91.2,66.5,49.5,58.7,44.7,21.1,99,61,10,30.33,30.11,7,1,7,0.00
2013-8-25,88.9,67.6,48.0,63.1,44.4,21.1,99,58,10,30.38,29.77,12,2,12,0.00
2013-8-26,78.4,69.8,64.6,68.6,59.3,53.2,99,70,50,29.92,29.61,12,2,12,0.31
2013-8-27,96.3,74.9,67.6,75.3,64.0,19.0,99,79,10,30.16,29.53,8,2,8,1.46
2013-8-28,98.1,75.6,64.8,74.7,66.5,49.3,99,80,22,30.01,29.91,11,1,11,0.00
2013-8-29,83.3,71.1,61.5,70.4,63.6,56.4,99,79,44,30.15,30.00,6,1,6,0.00
2013-8-30,88.5,71.8,60.3,70.0,62.9,55.7,99,78,34,30.12,29.93,9,2,9,0.00
2013-8-31,80.1,74.8,70.5,75.8,72.8,69.4,99,94,72,29.93,29.87,10,3,10,0.06
2013-9-1,86.4,74.3,68.0,80.7,72.0,67.7,99,93,62,29.95,29.88,11,1,11,0.80
2013-9-2,80.6,74.8,71.2,76.6,72.9,68.2,99,94,73,29.92,29.78,9,1,9,0.17
2013-9-3,82.8,72.5,64.9,74.4,66.2,59.1,99,83,47,29.88,29.79,9,1,9,0.00
2013-9-4,88.3,68.4,55.4,63.6,51.1,25.4,99,66,11,30.04,29.85,11,2,11,0.00
2013-9-5,80.1,64.3,48.6,68.5,48.1,15.6,99,68,10,30.25,29.98,11,1,11,0.04
2013-9-6,76.8,55.9,41.5,56.4,36.7,11.0,99,64,10,30.36,30.21,8,1,8,0.01
2013-9-7,83.7,62.2,44.4,56.4,42.3,19.5,99,60,10,30.22,29.73,10,2,10,1.96
2013-9-8,81.7,66.5,47.7,62.4,45.3,15.6,98,56,10,29.96,29.65,18,2,18,0.00
2013-9-9,70.2,58.3,39.9,53.5,31.4,19.8,99,49,15,30.11,29.96,8,3,8,0.00
2013-9-10,82.2,72.1,68.0,72.1,48.9,19.0,99,56,10,30.08,29.81,14,4,14,0.05
2013-9-11,97.9,81.3,70.7,76.1,69.2,35.7,99,72,22,29.93,29.80,17,3,17,0.00
2013-9-12,89.1,74.9,66.4,75.4,68.8,61.9,99,84,41,29.82,29.52,17,3,17,0.81
2013-9-13,84.2,69.2,58.3,71.0,60.4,50.5,99,77,35,29.64,29.44,11,2,11,0.06
2013-9-14,76.8,59.0,48.7,54.8,45.6,32.6,99,65,24,29.94,29.64,11,2,11,0.00
2013-9-15,77.5,57.1,41.9,51.7,41.0,15.1,99,66,10,30.05,29.92,9,1,9,0.00
2013-9-16,78.4,59.5,46.6,59.8,46.1,28.9,99,67,21,30.13,29.89,9,2,9,0.02
2013-9-17,75.9,51.8,35.2,43.0,28.0,6.4,96,53,10,30.30,30.13,8,2,8,0.00
2013-9-18,79.9,54.8,35.8,50.8,34.5,12.9,99,62,10,30.21,30.01,8,1,8,0.00
2013-9-19,85.6,60.8,41.4,55.5,40.3,18.2,99,61,10,30.03,29.90,8,1,8,0.00
2013-9-20,88.0,62.5,43.9,59.3,45.3,22.3,99,67,10,29.95,29.84,8,1,8,0.00
2013-9-21,77.7,66.1,51.4,62.9,56.8,51.2,99,75,46,29.88,29.66,17,4,17,0.00
2013-9-22,77.5,67.7,50.2,59.2,47.1,21.0,66,50,17,30.25,29.66,14,5,14,0.49
2013-9-23,73.4,53.2,39.2,48.9,31.8,10.8,99,55,10,30.24,30.07,12,2,12,0.00
2013-9-24,79.9,53.0,35.8,46.5,32.6,11.1,99,60,10,30.24,27.04,11,2,11,0.00
2013-9-25,84.2,57.6,39.6,52.5,39.0,16.3,99,64,10,30.17,30.07,7,1,7,0.00
2013-9-26,80.6,60.0,48.0,53.7,42.1,16.3,96,62,10,30.32,30.17,7,1,7,0.00
2013-9-27,68.9,56.2,46.0,55.5,48.0,38.3,99,78,36,30.48,30.32,7,1,7,0.00
2013-9-28,92.1,58.5,40.5,58.7,44.4,21.8,99,72,10,30.54,30.45,5,1,5,0.00
2013-9-29,90.0,58.3,43.2,57.1,41.7,14.9,99,68,10,30.47,30.30,8,1,8,0.00
2013-9-30,87.4,57.3,39.2,57.2,39.4,17.6,99,67,10,30.32,30.16,7,1,7,0.00
2013-10-1,88.7,60.3,42.3,57.5,45.6,24.0,99,73,10,30.20,30.07,5,1,5,0.00
2013-10-2,87.6,64.2,48.4,64.5,51.3,38.9,99,72,18,30.20,30.08,11,2,11,0.00
2013-10-3,83.8,60.9,44.8,58.0,41.2,16.3,99,63,10,30.32,30.19,7,1,7,0.00
2013-10-4,72.7,57.3,47.8,63.0,53.9,47.3,99,90,51,30.28,30.23,6,1,6,0.22
2013-10-5,83.8,65.5,58.3,66.5,59.8,50.6,99,85,34,30.32,30.25,5,1,5,0.05
2013-10-6,65.5,60.0,57.4,64.0,59.6,57.1,99,98,94,30.38,30.29,6,0,6,0.43
2013-10-7,78.8,66.2,56.1,72.1,62.7,55.9,99,90,61,30.30,29.90,25,5,25,0.33
2013-10-8,77.9,55.8,43.0,55.9,37.5,10.7,99,66,10,30.49,30.06,10,1,10,0.01
2013-10-9,77.4,52.6,38.1,49.6,34.3,12.5,99,64,10,30.58,30.47,5,1,5,0.00
2013-10-10,62.1,51.1,41.0,50.7,45.2,39.6,99,82,53,30.48,30.27,5,1,5,0.00
2013-10-11,84.0,60.2,48.6,53.0,45.0,34.1,99,64,19,30.28,30.18,8,1,8,0.00
2013-10-12,72.3,55.4,31.3,56.6,47.2,24.3,99,76,39,30.49,30.25,97,2,97,0.00
2013-10-13,76.3,55.6,45.3,48.3,42.2,27.3,90,64,21,30.56,29.32,14,1,14,0.33
2013-10-14,54.1,48.8,36.1,51.0,40.9,35.6,99,76,61,29.92,29.77,4,1,4,0.00
2013-10-15,88.5,61.9,0.0,59.4,40.5,17.6,99,51,10,29.93,29.76,6,2,6,0.34
2013-10-16,61.9,53.8,46.0,52.6,46.8,41.9,99,79,49,29.84,29.59,4,1,4,0.00
2013-10-17,80.1,64.0,52.0,62.9,55.0,42.3,99,78,27,29.59,29.36,9,2,9,0.05
2013-10-18,75.0,60.5,42.4,63.6,39.9,11.0,99,58,10,29.62,29.29,17,4,17,0.02
2013-10-19,71.2,52.6,36.3,51.7,32.4,7.7,99,58,10,29.66,29.42,13,2,13,0.01
2013-10-20,69.3,52.6,37.0,51.8,29.2,1.3,99,56,10,29.73,29.39,18,2,18,0.05
2013-10-21,73.2,52.0,34.5,45.6,26.0,6.5,99,51,10,29.81,29.66,11,2,11,0.00
2013-10-22,70.7,53.9,43.9,51.6,39.7,26.8,99,62,21,29.66,29.39,13,2,13,0.00
2013-10-23,55.8,42.3,31.8,40.9,29.3,16.1,95,65,21,29.49,29.28,4,0,4,0.00
2013-10-24,60.3,42.8,29.5,39.1,16.7,-6.2,96,47,10,29.61,29.37,17,3,17,0.00
2013-10-25,54.7,38.5,27.9,31.5,12.5,-7.2,85,45,10,29.86,29.61,16,2,16,0.00
2013-10-26,59.0,43.1,26.6,36.2,12.9,-4.8,94,42,10,29.86,29.55,20,4,20,0.00
2013-10-27,61.2,47.2,32.2,29.6,11.3,-5.2,64,28,10,29.78,29.50,17,3,17,0.00
2013-10-28,65.1,43.0,26.8,35.0,13.6,-2.6,92,42,10,30.03,29.77,14,3,14,0.00
2013-10-29,62.4,40.0,27.3,20.4,8.6,-11.3,67,33,10,30.14,30.03,8,1,8,0.00
2013-10-30,63.9,41.1,27.9,33.9,23.4,1.3,84,56,10,30.05,29.87,7,1,7,0.01
2013-10-31,62.8,46.8,32.0,60.7,43.0,28.8,99,87,57,29.93,29.46,17,2,17,0.04
2013-11-1,68.2,63.4,54.5,62.8,54.6,45.1,98,74,44,29.46,29.16,32,9,32,0.14
2013-11-2,75.6,54.3,39.0,48.3,31.3,8.1,99,53,10,29.43,29.27,11,1,11,0.00
2013-11-3,57.0,42.6,29.8,41.7,11.4,-12.2,82,33,10,30.12,29.42,11,3,11,0.00
2013-11-4,55.4,34.0,20.7,17.2,0.8,-16.6,61,29,10,30.38,30.12,13,1,13,0.00
2013-11-5,58.3,40.7,24.6,24.4,11.7,-5.2,66,36,10,30.39,30.19,9,2,9,0.00
2013-11-6,64.9,52.4,40.6,47.4,27.4,5.4,80,44,10,30.19,29.74,16,5,16,0.00
2013-11-7,63.0,52.5,38.7,58.2,44.5,20.8,95,75,45,29.74,29.39,16,5,16,0.19
2013-11-8,50.9,38.6,28.6,39.1,14.7,-10.5,94,45,10,29.81,29.54,23,4,23,0.01
2013-11-9,51.6,39.6,26.6,17.3,5.4,-9.5,62,27,10,29.93,29.68,14,4,17,0.00
2013-11-10,59.2,47.1,41.7,31.4,16.2,-1.5,63,31,10,30.51,29.50,22,4,22,0.02
2013-11-11,55.6,46.6,39.2,11.8,-1.3,-7.9,28,14,10,30.24,30.02,23,6,23,0.00
2013-11-12,50.0,35.6,25.0,26.5,-0.2,-17.2,63,24,10,30.33,30.01,17,5,17,0.02
2013-11-13,42.4,29.0,17.6,6.4,-8.5,-21.4,58,23,10,30.43,30.30,11,3,13,0.00
2013-11-14,56.1,40.5,28.8,0.9,-6.0,-15.2,29,15,10,30.30,30.18,12,4,12,0.00
2013-11-15,63.5,47.2,36.7,11.8,-2.6,-14.7,29,13,10,30.32,30.22,18,4,18,0.00
2013-11-16,72.7,49.0,33.8,26.8,5.5,-10.0,71,21,10,30.42,30.30,8,2,9,0.00
2013-11-17,60.8,50.1,33.4,59.0,42.5,24.6,97,76,44,30.40,29.91,13,3,13,0.00
2013-11-18,70.0,60.4,46.4,62.3,27.6,-0.6,99,40,10,29.91,29.64,24,7,24,0.15
2013-11-19,49.6,40.6,29.8,14.0,0.9,-10.9,39,20,10,30.43,29.81,28,7,28,0.00
2013-11-20,50.7,31.6,18.9,11.1,0.4,-17.1,70,31,10,30.74,30.43,11,2,11,0.00
2013-11-21,53.2,33.8,14.7,23.5,7.9,-11.3,81,43,10,30.75,30.49,10,1,10,0.00
2013-11-22,52.5,45.9,41.2,49.7,40.5,22.8,99,83,47,30.49,29.95,10,1,10,0.21
2013-11-23,49.3,40.1,28.9,47.2,7.0,-20.3,99,30,10,30.09,29.94,22,6,22,0.00
2013-11-24,32.0,23.6,18.7,9.3,-20.9,-27.7,48,13,10,30.37,29.99,24,10,24,0.00
2013-11-25,39.2,26.4,13.5,-7.2,-19.8,-29.1,21,12,10,30.52,30.37,14,5,14,0.00
2013-11-26,39.7,35.0,31.1,34.0,-2.7,-19.3,96,28,10,30.44,30.07,16,4,16,0.18
2013-11-27,60.6,45.5,35.2,60.4,43.3,16.5,99,93,43,30.07,29.39,21,5,21,1.65
2013-11-28,36.9,29.4,21.7,17.0,-6.9,-23.9,44,23,10,30.56,29.68,22,7,22,0.00
2013-11-29,41.7,27.8,19.0,13.7,-6.1,-23.4,65,28,10,30.84,30.56,11,2,11,0.00
2013-11-30,41.5,24.7,10.8,9.6,-7.0,-22.1,67,31,10,30.90,30.50,10,1,10,0.00
2013-12-1,43.9,35.5,29.3,25.9,15.3,0.5,66,44,28,30.51,30.12,4,1,4,0.00
2013-12-2,44.6,35.9,27.3,37.2,31.0,24.8,98,83,58,30.13,30.01,4,0,4,0.00
2013-12-3,54.9,36.3,26.2,38.8,27.3,-16.6,99,75,22,30.10,29.97,9,1,9,0.00
2013-12-4,56.7,33.8,0.0,36.2,17.7,-21.7,97,63,10,30.22,29.91,16,1,16,1.83
2013-12-5,55.4,41.4,32.5,55.1,38.1,25.1,99,89,63,30.01,29.75,14,2,14,0.06
2013-12-6,55.0,45.8,33.3,54.8,41.7,26.6,99,87,53,29.99,29.69,11,3,11,0.39
2013-12-7,42.3,33.9,28.2,35.3,16.7,-7.4,99,58,14,30.31,29.92,17,4,17,0.14
2013-12-8,33.4,28.4,21.0,19.0,2.1,-15.9,74,35,11,30.43,30.28,5,1,5,0.00
2013-12-9,35.1,31.1,26.1,34.8,26.6,-4.8,99,86,22,30.29,29.75,5,1,5,0.12
2013-12-10,34.3,29.0,18.7,34.1,26.6,13.7,99,91,58,29.87,29.64,4,0,4,0.01
2013-12-11,31.3,23.9,17.6,19.0,5.4,-2.3,91,48,25,30.07,29.86,0,0,0,0.00
2013-12-12,31.3,19.0,12.7,9.7,-11.2,-31.0,72,32,10,30.14,29.91,0,0,0,0.00
2013-12-13,33.6,22.9,14.7,-1.9,-17.9,-26.2,29,16,10,30.20,29.85,18,2,18,0.00
2013-12-14,21.9,16.8,14.5,8.2,-12.7,-27.5,65,29,10,30.41,29.88,8,2,8,0.00
2013-12-15,33.8,25.7,18.1,21.6,12.4,1.0,84,59,32,29.88,29.32,11,1,11,0.00
2013-12-16,34.7,23.3,6.3,12.0,-14.0,-29.7,66,23,10,30.05,29.58,16,4,16,0.00
2013-12-17,18.3,9.1,-4.5,3.2,-6.1,-20.9,60,49,37,30.09,29.78,9,2,9,0.00
2013-12-18,40.6,23.2,12.0,8.9,-1.2,-17.5,64,39,10,29.93,29.75,13,2,13,0.04
2013-12-19,49.5,32.4,23.5,14.6,-0.7,-15.5,52,28,10,29.97,29.79,15,4,15,0.09
2013-12-20,54.5,43.0,24.8,20.2,5.0,-5.1,63,29,10,29.96,29.83,14,4,14,0.10
2013-12-21,55.6,52.5,51.8,40.4,10.7,-2.6,64,24,10,30.09,29.86,12,7,12,0.00
2013-12-22,66.7,60.4,52.3,60.2,52.9,40.5,99,77,56,30.00,29.80,21,8,21,0.00
2013-12-23,61.2,49.3,36.3,56.9,45.7,14.2,99,88,40,30.18,29.97,15,3,15,0.63
2013-12-24,43.7,32.6,21.7,16.1,-1.9,-24.5,46,25,10,30.34,30.12,20,4,20,0.00
2013-12-25,33.3,20.5,14.0,-5.1,-19.1,-29.0,37,17,10,30.58,30.34,15,4,15,0.00
2013-12-26,27.0,23.2,20.1,12.4,-1.7,-14.8,56,34,19,30.52,30.29,6,1,6,0.00
2013-12-27,40.3,25.3,10.4,20.8,1.2,-16.1,80,44,10,30.37,30.26,10,2,10,0.04
2013-12-28,52.7,35.0,23.9,18.5,4.2,-11.8,60,32,10,30.31,30.07,16,3,16,0.00
2013-12-29,44.4,37.5,30.4,38.4,21.6,3.3,99,59,18,30.09,29.50,11,2,11,0.86
2013-12-30,39.0,29.3,14.9,36.4,5.6,-26.6,99,51,10,30.25,29.65,22,4,22,0.01
2013-12-31,28.8,18.9,9.7,6.2,-11.4,-28.3,54,29,10,30.28,30.08,16,3,16,0.00
2014-1-1,35.4,23.8,14.9,-1.9,-19.5,-29.8,34,14,10,30.44,30.27,16,3,16,0.00
2014-1-2,21.9,16.4,7.0,7.1,0.5,-7.2,55,49,35,30.38,29.85,11,2,11,0.00